| time (UTC) | temp F | wind direction | speed knots | gust knots | rain 1hr in | rain 24hr in | rain mn in | humidity % | barometer mb |
| 20260504224143 | 67 | 313 | 2.6 | 7.0 | 0.00 | 0.00 | 0.00 | 40 | 1010.0 |
| 20260504223641 | 67 | 320 | 2.6 | 6.1 | 0.00 | 0.00 | 0.00 | 39 | 1009.8 |
| 20260504223136 | 68 | 73 | 1.7 | 2.6 | 0.00 | 0.00 | 0.00 | 36 | 1009.8 |
| 20260504222634 | 68 | 322 | 3.5 | 6.1 | 0.00 | 0.00 | 0.00 | 36 | 1009.7 |
| 20260504222130 | 69 | 150 | 2.6 | 5.2 | 0.00 | 0.00 | 0.00 | 35 | 1009.7 |
| 20260504221628 | 70 | 108 | 3.5 | 5.2 | 0.00 | 0.00 | 0.00 | 32 | 1009.9 |
| 20260504221125 | 70 | 92 | 0.9 | 2.6 | 0.00 | 0.00 | 0.00 | 32 | 1009.5 |
| 20260504220621 | 70 | 354 | 1.7 | 2.6 | 0.00 | 0.00 | 0.00 | 32 | 1009.7 |
| 20260504220120 | 70 | 309 | 1.7 | 2.6 | 0.00 | 0.00 | 0.00 | 32 | 1009.6 |
| 20260504215615 | 70 | 310 | 2.6 | 5.2 | 0.00 | 0.00 | 0.00 | 32 | 1009.5 |
| 20260504215113 | 71 | 308 | 0.9 | 1.7 | 0.00 | 0.00 | 0.00 | 33 | 1009.6 |
| 20260504214608 | 71 | 311 | 0.0 | 1.7 | 0.00 | 0.00 | 0.00 | 32 | 1009.6 |
| 20260504214105 | 71 | 129 | 1.7 | 2.6 | 0.00 | 0.00 | 0.00 | 30 | 1009.6 |
| 20260504213601 | 71 | 298 | 2.6 | 6.1 | 0.00 | 0.00 | 0.00 | 31 | 1009.7 |
| 20260504213058 | 72 | 326 | 0.9 | 4.3 | 0.00 | 0.00 | 0.00 | 30 | 1009.5 |
| 20260504212554 | 73 | 62 | 2.6 | 6.1 | 0.00 | 0.00 | 0.00 | 29 | 1009.8 |
| 20260504212052 | 72 | 253 | 0.9 | 1.7 | 0.00 | 0.00 | 0.00 | 30 | 1009.6 |
| 20260504211549 | 72 | 67 | 3.5 | 4.3 | 0.00 | 0.00 | 0.00 | 29 | 1009.6 |
| 20260504211045 | 73 | 323 | 0.9 | 7.8 | 0.00 | 0.00 | 0.00 | 29 | 1009.6 |
| 20260504210542 | 72 | 163 | 0.9 | 2.6 | 0.00 | 0.00 | 0.00 | 29 | 1009.7 |
| 20260504210039 | 71 | 214 | 0.9 | 4.3 | 0.00 | 0.00 | 0.00 | 31 | 1009.8 |
| 20260504205537 | 71 | 156 | 3.5 | 5.2 | 0.00 | 0.00 | 0.00 | 30 | 1009.6 |
| 20260504205035 | 70 | 287 | 0.9 | 2.6 | 0.00 | 0.00 | 0.00 | 32 | 1009.5 |
| 20260504204533 | 70 | 280 | 1.7 | 2.6 | 0.00 | 0.00 | 0.00 | 31 | 1009.5 |
| 20260504204032 | 70 | 155 | 1.7 | 4.3 | 0.00 | 0.00 | 0.00 | 31 | 1009.8 |
| 20260504203529 | 71 | 168 | 2.6 | 5.2 | 0.00 | 0.00 | 0.00 | 31 | 1009.5 |
| 20260504203026 | 70 | 99 | 1.7 | 5.2 | 0.00 | 0.00 | 0.00 | 31 | 1009.8 |
| 20260504202522 | 73 | 292 | 0.9 | 4.3 | 0.00 | 0.00 | 0.00 | 29 | 1009.6 |
| 20260504202019 | 72 | 40 | 3.5 | 7.0 | 0.00 | 0.00 | 0.00 | 29 | 1009.7 |
| 20260504201516 | 71 | 254 | 0.9 | 5.2 | 0.00 | 0.00 | 0.00 | 29 | 1009.5 |
| 20260504201014 | 72 | 349 | 0.9 | 2.6 | 0.00 | 0.00 | 0.00 | 29 | 1009.6 |
| 20260504200510 | 71 | 51 | 2.6 | 7.0 | 0.00 | 0.00 | 0.00 | 30 | 1009.7 |
| 20260504200007 | 72 | 226 | 1.7 | 2.6 | 0.00 | 0.00 | 0.00 | 30 | 1009.7 |
| 20260504195503 | 73 | 238 | 0.9 | 4.3 | 0.00 | 0.00 | 0.00 | 29 | 1009.7 |
| 20260504194959 | 72 | 255 | 0.9 | 2.6 | 0.00 | 0.00 | 0.00 | 29 | 1009.8 |
| 20260504194455 | 72 | 224 | 2.6 | 4.3 | 0.00 | 0.00 | 0.00 | 29 | 1009.8 |
| 20260504193951 | 71 | 316 | 2.6 | 6.1 | 0.00 | 0.00 | 0.00 | 30 | 1009.6 |
| 20260504193449 | 72 | 279 | 1.7 | 6.1 | 0.00 | 0.00 | 0.00 | 29 | 1009.9 |
| 20260504192947 | 72 | 85 | 2.6 | 4.3 | 0.00 | 0.00 | 0.00 | 29 | 1009.8 |
| 20260504192444 | 72 | 39 | 2.6 | 5.2 | 0.00 | 0.00 | 0.00 | 27 | 1009.8 |
| 20260504191943 | 72 | 159 | 6.1 | 7.8 | 0.00 | 0.00 | 0.00 | 28 | 1009.8 |
| 20260504191441 | 72 | 250 | 3.5 | 6.1 | 0.00 | 0.00 | 0.00 | 28 | 1009.9 |
| 20260504190936 | 72 | 347 | 4.3 | 7.0 | 0.00 | 0.00 | 0.00 | 29 | 1009.9 |
| 20260504190432 | 72 | 220 | 0.9 | 5.2 | 0.00 | 0.00 | 0.00 | 29 | 1010.1 |
| 20260504185929 | 71 | 291 | 0.9 | 4.3 | 0.00 | 0.00 | 0.00 | 28 | 1010.2 |
| 20260504185426 | 71 | 130 | 4.3 | 8.7 | 0.00 | 0.00 | 0.00 | 28 | 1009.9 |
| 20260504184922 | 70 | 46 | 3.5 | 8.7 | 0.00 | 0.00 | 0.00 | 28 | 1010.3 |
| 20260504184418 | 71 | 169 | 1.7 | 7.0 | 0.00 | 0.00 | 0.00 | 28 | 1010.3 |
| 20260504183914 | 71 | 82 | 3.5 | 7.0 | 0.00 | 0.00 | 0.00 | 27 | 1010.3 |
| 20260504183411 | 72 | 126 | 3.5 | 6.1 | 0.00 | 0.00 | 0.00 | 27 | 1010.3 |
| 20260504182909 | 71 | 229 | 3.5 | 5.2 | 0.00 | 0.00 | 0.00 | 27 | 1010.2 |
| 20260504182406 | 71 | 31 | 3.5 | 4.3 | 0.00 | 0.00 | 0.00 | 28 | 1010.3 |
| 20260504181903 | 71 | 188 | 2.6 | 5.2 | 0.00 | 0.00 | 0.00 | 29 | 1010.3 |
| 20260504181400 | 70 | 318 | 0.9 | 4.3 | 0.00 | 0.00 | 0.00 | 28 | 1010.3 |
| 20260504180859 | 71 | 86 | 5.2 | 7.8 | 0.00 | 0.00 | 0.00 | 28 | 1010.2 |
| 20260504180357 | 71 | 193 | 3.5 | 7.0 | 0.00 | 0.00 | 0.00 | 28 | 1010.3 |
| 20260504175855 | 70 | 308 | 1.7 | 4.3 | 0.00 | 0.00 | 0.00 | 30 | 1010.3 |
| 20260504175351 | 71 | 103 | 4.3 | 7.8 | 0.00 | 0.00 | 0.00 | 28 | 1010.5 |
| 20260504174849 | 70 | 86 | 3.5 | 5.2 | 0.00 | 0.00 | 0.00 | 29 | 1010.6 |
| 20260504174347 | 70 | 285 | 1.7 | 7.8 | 0.00 | 0.00 | 0.00 | 29 | 1010.6 |
| 20260504173843 | 69 | 84 | 3.5 | 7.8 | 0.00 | 0.00 | 0.00 | 29 | 1010.7 |
| 20260504173340 | 71 | 0 | 2.6 | 7.0 | 0.00 | 0.00 | 0.00 | 28 | 1010.7 |
| 20260504172837 | 69 | 191 | 3.5 | 5.2 | 0.00 | 0.00 | 0.00 | 28 | 1010.9 |
| 20260504172334 | 71 | 291 | 2.6 | 5.2 | 0.00 | 0.00 | 0.00 | 30 | 1010.9 |
| 20260504171829 | 71 | 298 | 1.7 | 6.1 | 0.00 | 0.00 | 0.00 | 29 | 1011.0 |
| 20260504171327 | 70 | 58 | 2.6 | 4.3 | 0.00 | 0.00 | 0.00 | 29 | 1011.0 |
| 20260504170824 | 70 | 161 | 2.6 | 5.2 | 0.00 | 0.00 | 0.00 | 29 | 1011.1 |
| 20260504170321 | 70 | 278 | 0.9 | 4.3 | 0.00 | 0.00 | 0.00 | 29 | 1010.6 |
| 20260504160239 | 69 | 147 | 4.3 | 6.1 | 0.00 | 0.00 | 0.00 | 31 | 1011.6 |
| 20260504150705 | 66 | 314 | 3.5 | 11.3 | 0.00 | 0.00 | 0.00 | 33 | 1012.1 |
| 20260504150202 | 66 | 132 | 4.3 | 7.0 | 0.00 | 0.00 | 0.00 | 33 | 1012.1 |
| 20260504141131 | 64 | 287 | 0.9 | 7.0 | 0.00 | 0.00 | 0.00 | 35 | 1012.4 |
| 20260504140627 | 65 | 89 | 2.6 | 4.3 | 0.00 | 0.00 | 0.00 | 36 | 1012.2 |
| 20260504140123 | 65 | 290 | 0.0 | 4.3 | 0.00 | 0.00 | 0.00 | 35 | 1012.3 |
| 20260504130551 | 61 | 44 | 1.7 | 5.2 | 0.00 | 0.00 | 0.00 | 40 | 1013.3 |
| 20260504110439 | 49 | 255 | 0.0 | 1.7 | 0.00 | 0.00 | 0.00 | 54 | 1013.5 |
| 20260504100401 | 42 | 263 | 0.0 | 0.9 | 0.00 | 0.00 | 0.00 | 66 | 1013.7 |
| 20260504081754 | 44 | 301 | 0.9 | 1.7 | 0.00 | 0.00 | 0.00 | 62 | 1013.5 |
| 20260504081251 | 44 | 305 | 0.0 | 0.0 | 0.00 | 0.00 | 0.00 | 62 | 1013.2 |
| 20260504080747 | 44 | 339 | 0.0 | 2.6 | 0.00 | 0.00 | 0.00 | 61 | 1013.3 |
| 20260504080244 | 44 | 282 | 0.9 | 1.7 | 0.00 | 0.00 | 0.00 | 64 | 1013.3 |
| 20260504070211 | 43 | 279 | 0.0 | 0.0 | 0.00 | 0.00 | 0.00 | 68 | 1013.1 |
| 20260504060132 | 42 | 306 | 0.0 | 0.9 | 0.00 | 0.00 | 0.00 | 70 | 1013.2 |
| 20260504050600 | 41 | 284 | 0.0 | 0.9 | 0.00 | 0.00 | 0.00 | 72 | 1013.2 |
| 20260504045554 | 41 | 284 | 0.0 | 0.9 | 0.00 | 0.00 | 0.00 | 72 | 1013.3 |
| 20260504045049 | 40 | 269 | 0.0 | 0.9 | 0.00 | 0.00 | 0.00 | 72 | 1013.3 |
| 20260504044547 | 39 | 284 | 0.9 | 1.7 | 0.00 | 0.00 | 0.00 | 73 | 1013.3 |
| 20260504044043 | 39 | 261 | 0.9 | 0.9 | 0.00 | 0.00 | 0.00 | 75 | 1013.4 |
| 20260504043541 | 38 | 276 | 0.0 | 0.9 | 0.00 | 0.00 | 0.00 | 76 | 1013.7 |
| 20260504043038 | 37 | 266 | 0.9 | 0.9 | 0.00 | 0.00 | 0.00 | 78 | 1013.5 |
| 20260504042535 | 36 | 261 | 0.9 | 0.9 | 0.00 | 0.00 | 0.00 | 79 | 1013.6 |
| 20260504042032 | 36 | 295 | 0.9 | 0.9 | 0.00 | 0.00 | 0.00 | 79 | 1013.5 |
| 20260504041527 | 35 | 282 | 0.0 | 0.9 | 0.00 | 0.00 | 0.00 | 80 | 1013.4 |
| 20260504041024 | 35 | 320 | 0.0 | 0.9 | 0.00 | 0.00 | 0.00 | 80 | 1013.4 |
| 20260504040521 | 35 | 342 | 0.9 | 0.9 | 0.00 | 0.00 | 0.00 | 80 | 1013.2 |
| 20260504040018 | 35 | 312 | 0.9 | 0.9 | 0.00 | 0.00 | 0.00 | 80 | 1013.2 |
| 20260504035515 | 35 | 312 | 0.0 | 0.9 | 0.00 | 0.00 | 0.00 | 79 | 1013.1 |
| 20260504035011 | 35 | 346 | 0.9 | 0.9 | 0.00 | 0.00 | 0.00 | 79 | 1013.2 |
| 20260504034509 | 35 | 319 | 0.9 | 1.7 | 0.00 | 0.00 | 0.00 | 79 | 1012.9 |
| 20260504034006 | 35 | 312 | 0.0 | 0.9 | 0.00 | 0.00 | 0.00 | 79 | 1013.2 |
| 20260504033504 | 35 | 311 | 0.0 | 0.9 | 0.00 | 0.00 | 0.00 | 78 | 1013.1 |
| 20260504033001 | 36 | 315 | 0.9 | 0.9 | 0.00 | 0.00 | 0.00 | 78 | 1013.1 |
| 20260504032457 | 36 | 331 | 0.9 | 0.9 | 0.00 | 0.00 | 0.00 | 77 | 1013.0 |
| 20260504031954 | 36 | 332 | 0.0 | 0.9 | 0.00 | 0.00 | 0.00 | 77 | 1013.0 |
| 20260504031451 | 36 | 343 | 0.9 | 0.9 | 0.00 | 0.00 | 0.00 | 77 | 1012.9 |
| 20260504030948 | 36 | 351 | 0.9 | 0.9 | 0.00 | 0.00 | 0.00 | 77 | 1013.1 |
| 20260504030445 | 36 | 334 | 0.0 | 0.9 | 0.00 | 0.00 | 0.00 | 76 | 1012.7 |
| 20260504025940 | 37 | 336 | 0.9 | 0.9 | 0.00 | 0.00 | 0.00 | 75 | 1012.9 |
| 20260504025438 | 37 | 346 | 0.9 | 0.9 | 0.00 | 0.00 | 0.00 | 74 | 1012.7 |
| 20260504024935 | 37 | 1 | 1.7 | 1.7 | 0.00 | 0.00 | 0.00 | 75 | 1012.8 |
| 20260504024432 | 37 | 345 | 0.9 | 0.9 | 0.00 | 0.00 | 0.00 | 74 | 1012.8 |
| 20260504023929 | 37 | 339 | 0.9 | 0.9 | 0.00 | 0.00 | 0.00 | 74 | 1012.7 |
| 20260504023425 | 38 | 344 | 0.9 | 0.9 | 0.00 | 0.00 | 0.00 | 73 | 1012.8 |
| 20260504022921 | 38 | 347 | 0.9 | 0.9 | 0.00 | 0.00 | 0.00 | 72 | 1012.9 |
| 20260504022417 | 38 | 352 | 0.9 | 0.9 | 0.00 | 0.00 | 0.00 | 71 | 1012.6 |
| 20260504021914 | 38 | 350 | 0.9 | 0.9 | 0.00 | 0.00 | 0.00 | 71 | 1012.6 |
| 20260504021411 | 38 | 348 | 0.9 | 0.9 | 0.00 | 0.00 | 0.00 | 70 | 1012.6 |
| 20260504020909 | 38 | 348 | 0.9 | 0.9 | 0.00 | 0.00 | 0.00 | 70 | 1012.7 |
| 20260504020405 | 39 | 0 | 0.9 | 1.7 | 0.00 | 0.00 | 0.00 | 70 | 1012.7 |
| 20260504015901 | 39 | 358 | 0.9 | 0.9 | 0.00 | 0.00 | 0.00 | 70 | 1012.6 |
| 20260504015357 | 39 | 353 | 0.9 | 0.9 | 0.00 | 0.00 | 0.00 | 69 | 1012.7 |
| 20260504014853 | 39 | 336 | 0.9 | 0.9 | 0.00 | 0.00 | 0.00 | 68 | 1012.8 |
| 20260504014350 | 39 | 36 | 0.9 | 0.9 | 0.00 | 0.00 | 0.00 | 69 | 1012.6 |
| 20260504013847 | 40 | 334 | 0.9 | 0.9 | 0.00 | 0.00 | 0.00 | 66 | 1012.6 |
| 20260504013345 | 40 | 334 | 0.9 | 0.9 | 0.00 | 0.00 | 0.00 | 65 | 1012.4 |
| 20260504012841 | 40 | 334 | 0.9 | 0.9 | 0.00 | 0.00 | 0.00 | 65 | 1012.3 |
| 20260504012339 | 41 | 334 | 0.0 | 0.9 | 0.00 | 0.00 | 0.00 | 66 | 1012.2 |
| 20260504011837 | 41 | 334 | 0.0 | 0.9 | 0.00 | 0.00 | 0.00 | 65 | 1012.2 |
| 20260504011333 | 41 | 334 | 0.9 | 0.9 | 0.00 | 0.00 | 0.00 | 61 | 1012.2 |
| 20260504010829 | 42 | 334 | 0.9 | 0.9 | 0.00 | 0.00 | 0.00 | 62 | 1012.2 |
| 20260504010325 | 42 | 334 | 0.9 | 0.9 | 0.00 | 0.00 | 0.00 | 62 | 1012.0 |
| 20260504005822 | 42 | 333 | 0.0 | 0.9 | 0.00 | 0.00 | 0.00 | 61 | 1012.0 |
| 20260504005318 | 43 | 333 | 0.0 | 0.9 | 0.00 | 0.00 | 0.00 | 58 | 1012.1 |
| 20260504004816 | 43 | 332 | 0.0 | 0.0 | 0.00 | 0.00 | 0.00 | 57 | 1011.9 |
| 20260504004314 | 44 | 332 | 0.0 | 0.0 | 0.00 | 0.00 | 0.00 | 55 | 1012.0 |
| 20260504003810 | 44 | 332 | 0.0 | 0.0 | 0.00 | 0.00 | 0.00 | 55 | 1011.7 |
| 20260504003307 | 44 | 332 | 0.0 | 0.0 | 0.00 | 0.00 | 0.00 | 56 | 1011.6 |
| 20260504002803 | 45 | 332 | 0.0 | 0.0 | 0.00 | 0.00 | 0.00 | 53 | 1011.7 |
| 20260504002300 | 45 | 332 | 0.0 | 0.0 | 0.00 | 0.00 | 0.00 | 53 | 1011.6 |
| 20260504001758 | 45 | 333 | 0.0 | 0.9 | 0.00 | 0.00 | 0.00 | 51 | 1011.5 |
| 20260504001255 | 46 | 332 | 0.0 | 0.9 | 0.00 | 0.00 | 0.00 | 51 | 1011.4 |
| 20260504000752 | 46 | 330 | 0.0 | 0.0 | 0.00 | 0.00 | 0.00 | 50 | 1011.7 |
| 20260504000248 | 47 | 331 | 0.0 | 0.9 | 0.00 | 0.00 | 0.00 | 49 | 1011.5 |
| 20260503235747 | 48 | 329 | 0.0 | 0.9 | 0.00 | 0.00 | 0.00 | 47 | 1011.6 |
| 20260503235243 | 48 | 338 | 0.0 | 0.9 | 0.00 | 0.00 | 0.00 | 45 | 1011.2 |
| 20260503234741 | 48 | 332 | 0.9 | 0.9 | 0.00 | 0.00 | 0.00 | 44 | 1011.4 |
| 20260503234239 | 48 | 332 | 0.9 | 0.9 | 0.00 | 0.00 | 0.00 | 43 | 1011.4 |
| 20260503233736 | 49 | 339 | 0.0 | 0.9 | 0.00 | 0.00 | 0.00 | 43 | 1011.2 |
| 20260503233232 | 50 | 340 | 0.0 | 0.9 | 0.00 | 0.00 | 0.00 | 43 | 1011.0 |
| 20260503232729 | 50 | 104 | 1.7 | 2.6 | 0.00 | 0.00 | 0.00 | 39 | 1011.1 |
| 20260503232226 | 50 | 217 | 0.9 | 1.7 | 0.00 | 0.00 | 0.00 | 41 | 1011.1 |
| 20260503231724 | 51 | 341 | 0.0 | 2.6 | 0.00 | 0.00 | 0.00 | 41 | 1011.1 |
| 20260503231221 | 51 | 6 | 0.9 | 6.1 | 0.00 | 0.00 | 0.00 | 41 | 1010.9 |
| 20260503230717 | 51 | 288 | 0.0 | 1.7 | 0.00 | 0.00 | 0.00 | 42 | 1010.9 |
| 20260503230214 | 51 | 326 | 0.0 | 0.9 | 0.00 | 0.00 | 0.00 | 40 | 1011.0 |
| 20260503225711 | 51 | 217 | 0.0 | 1.7 | 0.00 | 0.00 | 0.00 | 39 | 1010.9 |
| 20260503225206 | 51 | 131 | 0.9 | 4.3 | 0.00 | 0.00 | 0.00 | 39 | 1010.8 |
| 20260503224704 | 51 | 15 | 3.5 | 5.2 | 0.00 | 0.00 | 0.00 | 40 | 1010.7 |